EW4727 Weather Reports


time (UTC)temp
C
wind
direction
speed
KPH
gust
KPH
rain 1hr
cm
rain 24hr
cm
rain mn
cm
humidity
%
barometer
mb
20180619233709 18 186 0.0 0.0 0.00 0.00 0.00 85 1016.5
20180619232704 18 186 0.0 0.0 0.00 0.00 0.00 85 1016.4
20180619231705 18 186 0.0 0.0 0.00 0.00 0.00 86 1016.5
20180619230705 18 186 0.0 0.0 0.00 0.00 0.00 85 1016.5
20180619225708 18 186 0.0 0.0 0.00 0.00 0.00 85 1016.4
20180619224715 18 186 0.0 0.0 0.00 0.00 0.00 85 1016.5
20180619223705 18 186 0.0 0.0 0.00 0.00 0.00 84 1016.6
20180619222706 18 186 0.0 0.0 0.00 0.00 0.00 86 1016.6
20180619221705 18 186 0.0 0.0 0.00 0.00 0.00 87 1016.7
20180619215715 18 186 0.0 0.0 0.00 0.00 0.00 89 1016.7
20180619214704 18 186 0.0 1.6 0.00 0.00 0.00 89 1016.6
20180619213704 18 187 0.0 3.2 0.00 0.00 0.00 89 1016.7
20180619212704 18 197 3.2 9.7 0.00 0.00 0.00 89 1016.6
20180619211712 18 187 0.0 8.0 0.00 0.00 0.00 89 1016.5
20180619210705 18 198 3.2 12.9 0.00 0.00 0.00 87 1016.5
20180619205705 19 181 3.2 11.3 0.00 0.00 0.00 84 1016.5
20180619204704 19 177 0.0 8.0 0.00 0.00 0.00 83 1016.3
20180619202705 19 179 0.0 0.0 0.00 0.00 0.00 83 1015.9
20180619201704 19 187 1.6 9.7 0.00 0.00 0.00 82 1016.0
20180619200706 21 191 1.6 11.3 0.00 0.00 0.00 78 1016.0
20180619194709 25 214 6.4 11.3 0.00 0.00 0.00 64 1015.8
20180619193713 25 327 0.0 8.0 0.00 0.00 0.00 60 1015.5
20180619192705 25 327 1.6 12.9 0.00 0.00 0.00 59 1015.4
20180619191704 25 324 0.0 4.8 0.00 0.00 0.00 61 1015.5
20180619190704 25 325 3.2 12.9 0.00 0.00 0.00 61 1015.5
20180619185704 25 323 1.6 12.9 0.00 0.00 0.00 61 1015.5
20180619184705 25 321 1.6 9.7 0.00 0.00 0.00 60 1015.5
20180619183704 25 323 3.2 19.3 0.00 0.00 0.00 60 1015.6
20180619181704 26 328 1.6 16.1 0.00 0.00 0.00 59 1015.5
20180619180704 26 318 3.2 14.5 0.00 0.00 0.00 59 1015.5
20180619175705 26 332 4.8 19.3 0.00 0.00 0.00 58 1015.4
20180619173706 26 329 6.4 19.3 0.00 0.00 0.00 56 1015.3
20180619172704 27 320 8.0 19.3 0.00 0.00 0.00 55 1015.3
20180619171706 28 321 4.8 14.5 0.00 0.00 0.00 54 1015.2
20180619170704 28 317 8.0 20.9 0.00 0.00 0.00 54 1015.2
20180619165704 28 324 6.4 19.3 0.00 0.00 0.00 54 1015.2
20180619164704 28 324 8.0 19.3 0.00 0.00 0.00 53 1015.2
20180619163704 29 339 6.4 16.1 0.00 0.00 0.00 52 1015.4
20180619162704 30 316 3.2 16.1 0.00 0.00 0.00 52 1015.4
20180619161704 30 312 3.2 19.3 0.00 0.00 0.00 51 1015.3
20180619160705 30 327 6.4 19.3 0.00 0.00 0.00 50 1015.3
20180619155704 29 327 8.0 19.3 0.00 0.00 0.00 51 1015.3
20180619154704 30 326 9.7 20.9 0.00 0.00 0.00 50 1015.4
20180619152709 30 328 3.2 19.3 0.00 0.00 0.00 51 1015.6
20180619151705 29 338 9.7 19.3 0.00 0.00 0.00 50 1015.6
20180619150705 30 343 6.4 16.1 0.00 0.00 0.00 50 1015.5
20180619144705 29 319 3.2 16.1 0.00 0.00 0.00 52 1015.8
20180619143705 29 316 1.6 19.3 0.00 0.00 0.00 52 1015.8
20180619142704 29 333 8.0 16.1 0.00 0.00 0.00 53 1015.8
20180619141705 28 328 4.8 9.7 0.00 0.00 0.00 53 1016.0
20180619135705 29 329 4.8 12.9 0.00 0.00 0.00 53 1016.0
20180619134704 28 326 3.2 14.5 0.00 0.00 0.00 54 1015.9
20180619133705 28 335 1.6 12.9 0.00 0.00 0.00 56 1015.9
20180619131704 27 328 3.2 14.5 0.00 0.00 0.00 56 1016.0
20180619130705 28 319 8.0 16.1 0.00 0.00 0.00 55 1016.1
20180619125704 29 319 1.6 12.9 0.00 0.00 0.00 55 1016.0
20180619124712 29 315 3.2 12.9 0.00 0.00 0.00 54 1016.0
20180619123704 29 320 1.6 4.8 0.00 0.00 0.00 55 1016.1
20180619122704 28 314 0.0 8.0 0.00 0.00 0.00 56 1016.2
20180619121704 28 317 1.6 8.0 0.00 0.00 0.00 55 1016.2
20180619120705 28 228 1.6 8.0 0.00 0.00 0.00 55 1016.2
20180619115704 28 224 1.6 4.8 0.00 0.00 0.00 55 1016.2
20180619114705 28 223 0.0 4.8 0.00 0.00 0.00 56 1016.5
20180619113705 27 221 1.6 8.0 0.00 0.00 0.00 56 1016.5
20180619112705 27 209 0.0 8.0 0.00 0.00 0.00 57 1016.5
20180619111705 27 209 0.0 11.3 0.00 0.00 0.00 57 1016.5
20180619110704 27 214 1.6 11.3 0.00 0.00 0.00 57 1016.7
20180619105705 27 229 3.2 9.7 0.00 0.00 0.00 57 1016.6
20180619104705 28 199 3.2 8.0 0.00 0.00 0.00 54 1016.6
20180619103710 30 159 3.2 9.7 0.00 0.00 0.00 53 1016.6
20180619102705 29 127 1.6 8.0 0.00 0.00 0.00 53 1016.6
20180619101704 29 138 3.2 14.5 0.00 0.00 0.00 52 1016.7
20180619100704 29 136 4.8 12.9 0.00 0.00 0.00 53 1016.6
20180619094705 28 132 4.8 14.5 0.00 0.00 0.00 53 1016.7
20180619093704 28 117 3.2 14.5 0.00 0.00 0.00 54 1016.8
20180619092705 28 144 3.2 16.1 0.00 0.00 0.00 54 1016.8
20180619090704 28 135 3.2 16.1 0.00 0.00 0.00 54 1016.9
20180619085704 27 124 1.6 19.3 0.00 0.00 0.00 55 1016.9
20180619084706 27 138 6.4 19.3 0.00 0.00 0.00 55 1016.8
20180619083704 27 160 1.6 24.1 0.00 0.00 0.00 56 1016.7
20180619081704 26 61 8.0 25.7 0.00 0.00 0.00 56 1016.1
20180619080705 26 70 12.9 32.2 0.00 0.00 0.00 56 1016.0
20180619075704 26 77 12.9 27.4 0.00 0.00 0.00 56 1016.1
20180619074705 26 91 16.1 32.2 0.00 0.00 0.00 55 1015.9
20180619073711 26 87 11.3 33.8 0.00 0.00 0.00 55 1015.9
20180619072705 26 92 11.3 25.7 0.00 0.00 0.00 55 1015.8
20180619071705 25 82 16.1 27.4 0.00 0.00 0.00 55 1015.8
20180619070704 25 62 9.7 29.0 0.00 0.00 0.00 55 1015.7
20180619064704 25 78 14.5 29.0 0.00 0.00 0.00 56 1015.8
20180619063705 25 52 11.3 27.4 0.00 0.00 0.00 56 1015.8
20180619062704 25 90 12.9 27.4 0.00 0.00 0.00 57 1015.8
20180619061705 25 106 9.7 24.1 0.00 0.00 0.00 56 1015.9
20180619060704 25 92 11.3 32.2 0.00 0.00 0.00 55 1015.9
20180619055704 25 87 14.5 32.2 0.00 0.00 0.00 55 1015.9
20180619054705 25 112 11.3 27.4 0.00 0.00 0.00 54 1015.8
20180619053705 24 91 11.3 24.1 0.00 0.00 0.00 55 1015.9
20180619051714 24 81 14.5 38.6 0.00 0.00 0.00 55 1015.9
20180619050704 25 75 14.5 29.0 0.00 0.00 0.00 55 1015.8
20180619045704 25 102 11.3 37.0 0.00 0.00 0.00 55 1015.8
20180619044704 25 97 11.3 33.8 0.00 0.00 0.00 55 1015.8
20180619042708 25 88 14.5 35.4 0.00 0.00 0.00 54 1015.6
20180619041705 25 88 11.3 27.4 0.00 0.00 0.00 54 1015.5
20180619040704 25 77 16.1 32.2 0.00 0.00 0.00 53 1015.4
20180619035704 25 85 16.1 33.8 0.00 0.00 0.00 53 1015.5
20180619033704 26 102 14.5 35.4 0.00 0.00 0.00 55 1015.6
20180619032704 26 103 12.9 32.2 0.00 0.00 0.00 56 1015.5
20180619031704 26 109 8.0 25.7 0.00 0.00 0.00 57 1015.6
20180619030705 26 106 4.8 19.3 0.00 0.00 0.00 58 1015.7
20180619025704 26 101 3.2 19.3 0.00 0.00 0.00 57 1015.7
20180619024704 26 101 6.4 16.1 0.00 0.00 0.00 57 1015.7
20180619023705 26 84 6.4 19.3 0.00 0.00 0.00 57 1015.6
20180619022705 26 92 8.0 20.9 0.00 0.00 0.00 57 1015.6
20180619020704 26 86 8.0 19.3 0.00 0.00 0.00 57 1015.9
20180619015705 26 89 8.0 12.9 0.00 0.00 0.00 58 1015.9
20180619014705 25 97 1.6 12.9 0.00 0.00 0.00 59 1016.0
20180619013708 25 57 1.6 8.0 0.00 0.00 0.00 61 1016.1
20180619012705 25 84 0.0 0.0 0.00 0.00 0.00 65 1016.1
20180619011704 25 89 0.0 20.9 0.00 0.00 0.00 67 1016.1
20180619010704 26 89 0.0 0.0 0.00 0.00 0.00 62 1016.2
20180619005704 26 89 0.0 9.7 0.00 0.00 0.00 61 1016.2
20180619003705 25 57 0.0 0.0 0.00 0.00 0.00 63 1016.3
20180619002705 25 52 1.6 8.0 0.00 0.00 0.00 64 1016.1
20180619001705 25 45 1.6 8.0 0.00 0.00 0.00 65 1016.3
20180619000707 25 331 0.0 0.0 0.00 0.00 0.00 69 1016.4
20180618235709 25 331 0.0 0.0 0.00 0.00 0.00 69 1016.5
20180618234705 25 331 0.0 0.0 0.00 0.00 0.00 71 1016.6